Weather History for KI35 - March, 2014

Change the Weather History Date:

Sunday, March 23, 2014

  Actual Average (KLOZ) Record (KLOZ)
Temperature  
Mean Temperature 42 °F 49 °F  
Max Temperature 51 °F 61 °F 81 °F (2007)
Min Temperature 33 °F 38 °F 16 °F (1960)
Degree Days  
Heating Degree Days 23 16  
Month to date heating degree days 433  
Since 1 July heating degree days 3709  
Cooling Degree Days 0 0  
Month to date cooling degree days 0  
Year to date cooling degree days 0  
Moisture  
Dew Point 27 °F    
Average Humidity 57    
Maximum Humidity 87    
Minimum Humidity 30    
Precipitation  
Precipitation 0.00 in 0.13 in 1.45 in (1993)
Month to date precipitation 3.00  
Year to date precipitation 10.25  
Sea Level Pressure  
Sea Level Pressure 30.13 in    
Wind  
Wind Speed 6 mph (North)    
Max Wind Speed 17 mph    
Max Gust Speed 26 mph    
Visibility 10 miles    
Events      
T = Trace of Precipitation, MM = Missing Value Source: NWS Daily Summary

Daily Weather History Graph

Daily Weather History Graph

Search for Another Location

Airport or City:

Trip Planner

Search our weather history database for the weather conditions in past years. The results will help you decide how hot, cold, wet, or windy it might be!

Date:

Astronomy

Mar. 23, 2014 Rise Set
Actual Time 7:32 AM EDT 7:47 PM EDT
Civil Twilight 7:06 AM EDT 8:13 PM EDT
Nautical Twilight 6:36 AM EDT 8:44 PM EDT
Astronomical Twilight 6:05 AM EDT 9:15 PM EDT
Moon 1:56 AM EDT (3/23) 12:19 PM EDT (3/23)
Length of Visible Light 13h 07m
Length of Day
12h 15m
Waning Gibbous, 55% of the Moon is Illuminated
Mar 23
Waning Gibbous
Mar 23
Last Quarter
Mar 30
New
Apr 7
First Quarter
Apr 15
Full

Hourly Weather History & Observations

Time (EDT) Temp. Windchill Dew Point Humidity Pressure Visibility Wind Dir Wind Speed Gust Speed Precip Events Conditions
12:15 AM 50.0 °F - 28.4 °F 43% 30.08 in 10.0 mi North 8.1 mph - N/A   Mostly Cloudy
12:35 AM 50.0 °F - 28.4 °F 43% 30.08 in 10.0 mi WNW 3.5 mph - N/A   Mostly Cloudy
12:55 AM 50.0 °F - 28.4 °F 43% 30.08 in 10.0 mi ENE 3.5 mph - N/A   Mostly Cloudy
1:15 AM 50.0 °F - 28.4 °F 43% 30.07 in 10.0 mi NE 4.6 mph - N/A   Overcast
1:35 AM 50.0 °F - 28.4 °F 43% 30.07 in 10.0 mi ENE 4.6 mph - N/A   Overcast
1:55 AM 48.2 °F - 28.4 °F 46% 30.07 in 10.0 mi NNE 5.8 mph - N/A   Overcast
2:15 AM 46.4 °F 42.4 °F 30.2 °F 53% 30.07 in 10.0 mi ENE 8.1 mph - N/A   Overcast
2:35 AM 46.4 °F 42.9 °F 30.2 °F 53% 30.07 in 10.0 mi ENE 6.9 mph 19.6 mph N/A   Overcast
2:55 AM 46.4 °F 42.9 °F 30.2 °F 53% 30.06 in 10.0 mi ENE 6.9 mph - N/A   Overcast
3:15 AM 46.4 °F - 30.2 °F 53% 30.06 in 10.0 mi Calm Calm - N/A   Overcast
3:35 AM 46.4 °F 45.2 °F 30.2 °F 53% 30.06 in 10.0 mi ENE 3.5 mph - N/A   Overcast
3:55 AM 44.6 °F 42.2 °F 30.2 °F 57% 30.06 in 10.0 mi NNE 4.6 mph - N/A   Overcast
4:15 AM 44.6 °F 43.1 °F 32.0 °F 61% 30.06 in 10.0 mi North 3.5 mph - N/A   Overcast
4:35 AM 44.6 °F 40.2 °F 32.0 °F 61% 30.06 in 10.0 mi North 8.1 mph - N/A   Overcast
4:55 AM 42.8 °F 39.3 °F 32.0 °F 66% 30.06 in 10.0 mi North 5.8 mph - N/A   Overcast
5:15 AM 42.8 °F 40.1 °F 32.0 °F 66% 30.07 in 10.0 mi North 4.6 mph - N/A   Overcast
5:35 AM 42.8 °F 37.5 °F 32.0 °F 66% 30.08 in 10.0 mi North 9.2 mph - N/A   Mostly Cloudy
5:55 AM 42.8 °F 38.0 °F 32.0 °F 66% 30.10 in 10.0 mi NNW 8.1 mph - N/A   Overcast
6:15 AM 39.2 °F 37.0 °F 32.0 °F 75% 30.10 in 7.0 mi North 3.5 mph - N/A   Overcast
6:35 AM 39.2 °F - 32.0 °F 75% 30.09 in 10.0 mi Calm Calm - N/A   Overcast
6:55 AM 39.2 °F - 33.8 °F 81% 30.10 in 10.0 mi Calm Calm - N/A   Overcast
7:15 AM 37.4 °F 34.9 °F 33.8 °F 87% 30.10 in 10.0 mi North 3.5 mph - N/A   Overcast
7:35 AM 37.4 °F - 33.8 °F 87% 30.10 in 7.0 mi Calm Calm - N/A   Overcast
7:55 AM 37.4 °F - 33.8 °F 87% 30.10 in 7.0 mi Calm Calm - N/A   Overcast
8:15 AM 37.4 °F 34.9 °F 32.0 °F 81% 30.11 in 10.0 mi East 3.5 mph - N/A   Overcast
8:35 AM 37.4 °F - 33.8 °F 87% 30.12 in 10.0 mi Calm Calm - N/A   Overcast
8:55 AM 37.4 °F - 33.8 °F 87% 30.13 in 7.0 mi Calm Calm - N/A   Overcast
9:15 AM 37.4 °F - 33.8 °F 87% 30.14 in 7.0 mi Calm Calm - N/A   Overcast
9:35 AM 37.4 °F - 33.8 °F 87% 30.13 in 10.0 mi Calm Calm - N/A   Overcast
9:55 AM 39.2 °F 35.9 °F 32.0 °F 75% 30.13 in 10.0 mi NE 4.6 mph - N/A   Overcast
10:15 AM 37.4 °F 34.9 °F 32.0 °F 81% 30.13 in 10.0 mi North 3.5 mph - N/A   Overcast
10:35 AM 39.2 °F 32.5 °F 32.0 °F 75% 30.13 in 10.0 mi NNW 10.4 mph - N/A   Overcast
10:55 AM 37.4 °F 28.9 °F 32.0 °F 81% 30.14 in 10.0 mi North 13.8 mph 19.6 mph N/A   Overcast
11:15 AM 39.2 °F 32.5 °F 32.0 °F 75% 30.14 in 10.0 mi North 10.4 mph 16.1 mph N/A   Overcast
11:35 AM 41.0 °F 35.2 °F 32.0 °F 70% 30.15 in 10.0 mi NNW 9.2 mph 16.1 mph N/A   Mostly Cloudy
11:55 AM 41.0 °F 38.0 °F 32.0 °F 70% 30.14 in 10.0 mi NW 4.6 mph - N/A   Mostly Cloudy
12:15 PM 41.0 °F 38.0 °F 32.0 °F 70% 30.14 in 10.0 mi NNW 4.6 mph - N/A   Overcast
12:35 PM 42.8 °F - 32.0 °F 66% 30.14 in 10.0 mi Calm Calm - N/A   Overcast
12:55 PM 42.8 °F 39.3 °F 30.2 °F 61% 30.15 in 10.0 mi NNE 5.8 mph - N/A   Overcast
1:15 PM 44.6 °F 39.7 °F 30.2 °F 57% 30.16 in 10.0 mi NNW 9.2 mph - N/A   Overcast
1:35 PM 44.6 °F 40.7 °F 28.4 °F 53% 30.16 in 10.0 mi NNW 6.9 mph 20.7 mph N/A   Mostly Cloudy
1:55 PM 46.4 °F 41.1 °F 28.4 °F 50% 30.14 in 10.0 mi NW 11.5 mph 16.1 mph N/A   Mostly Cloudy
2:15 PM 48.2 °F - 28.4 °F 46% 30.12 in 10.0 mi NNW 5.8 mph - N/A   Mostly Cloudy
2:35 PM 50.0 °F - 26.6 °F 40% 30.10 in 10.0 mi West 6.9 mph 19.6 mph N/A   Scattered Clouds
2:55 PM 48.2 °F - 23.0 °F 37% 30.10 in 10.0 mi North 8.1 mph 19.6 mph N/A   Clear
3:15 PM 50.0 °F - 23.0 °F 35% 30.10 in 10.0 mi North 15.0 mph 23.0 mph N/A   Scattered Clouds
3:35 PM 50.0 °F - 21.2 °F 32% 30.09 in 10.0 mi NE 8.1 mph 20.7 mph N/A   Scattered Clouds
3:55 PM 51.8 °F - 23.0 °F 33% 30.09 in 10.0 mi WNW 8.1 mph - N/A   Clear
4:15 PM 51.8 °F - 21.2 °F 30% 30.09 in 10.0 mi WNW 12.7 mph 23.0 mph N/A   Scattered Clouds
4:35 PM 51.8 °F - 21.2 °F 30% 30.09 in 10.0 mi West 13.8 mph 20.7 mph N/A   Clear
4:55 PM 48.2 °F - 21.2 °F 34% 30.09 in 10.0 mi NW 9.2 mph 20.7 mph N/A   Clear
5:15 PM 50.0 °F - 21.2 °F 32% 30.10 in 10.0 mi NW 6.9 mph 20.7 mph N/A   Scattered Clouds
5:35 PM 48.2 °F - 21.2 °F 34% 30.11 in 10.0 mi NW 13.8 mph 20.7 mph N/A   Scattered Clouds
5:55 PM 46.4 °F 40.7 °F 21.2 °F 37% 30.12 in 10.0 mi WNW 12.7 mph 21.9 mph N/A   Scattered Clouds
6:15 PM 46.4 °F 41.1 °F 23.0 °F 40% 30.13 in 10.0 mi NW 11.5 mph 18.4 mph N/A   Mostly Cloudy
6:35 PM 44.6 °F 37.2 °F 21.2 °F 39% 30.15 in 10.0 mi North 17.3 mph 26.5 mph N/A   Overcast
6:55 PM 42.8 °F 36.6 °F 21.2 °F 42% 30.16 in 10.0 mi NW 11.5 mph 19.6 mph N/A   Mostly Cloudy
7:15 PM 42.8 °F 37.5 °F 23.0 °F 46% 30.16 in 10.0 mi NNW 9.2 mph - N/A   Mostly Cloudy
7:35 PM 41.0 °F 37.1 °F 23.0 °F 49% 30.17 in 10.0 mi NNW 5.8 mph - N/A   Scattered Clouds
7:55 PM 41.0 °F 38.0 °F 23.0 °F 49% 30.18 in 10.0 mi NNW 4.6 mph - N/A   Clear
8:15 PM 39.2 °F 34.2 °F 21.2 °F 49% 30.18 in 10.0 mi NNW 6.9 mph - N/A   Clear
8:35 PM 39.2 °F 34.2 °F 21.2 °F 49% 30.19 in 10.0 mi NW 6.9 mph - N/A   Clear
8:55 PM 37.4 °F 34.9 °F 21.2 °F 52% 30.20 in 10.0 mi NNE 3.5 mph - N/A   Clear
9:15 PM 37.4 °F 32.8 °F 21.2 °F 52% 30.21 in 10.0 mi NW 5.8 mph - N/A   Clear
9:35 PM 37.4 °F - 21.2 °F 52% 30.21 in 10.0 mi Calm Calm - N/A   Clear
9:55 PM 35.6 °F 32.8 °F 21.2 °F 56% 30.22 in 10.0 mi North 3.5 mph - N/A   Clear
10:15 PM 35.6 °F - 21.2 °F 56% 30.23 in 10.0 mi Calm Calm - N/A   Clear
10:35 PM 35.6 °F - 19.4 °F 52% 30.23 in 10.0 mi Calm Calm - N/A   Scattered Clouds
10:55 PM 35.6 °F - 21.2 °F 56% 30.23 in 10.0 mi Calm Calm - N/A   Clear
11:15 PM 33.8 °F - 19.4 °F 56% 30.23 in 10.0 mi Calm Calm - N/A   Clear
11:35 PM 33.8 °F - 19.4 °F 56% 30.24 in 10.0 mi Calm Calm - N/A   Clear
11:55 PM 33.8 °F 29.6 °F 19.4 °F 56% 30.24 in 10.0 mi North 4.6 mph - N/A   Clear